Location: Kott?ru
(16.6209°N, 80.6208°E)
Time: 05:12:56
(UTC+00:00)

AO-85 - Visible Passes

Search period start: 08 June 2023 00:00
Search period end: 18 June 2023 00:00
Orbit: 516 x 753 km, 64.8° (Epoch: 04 January)

Date Brightness Start Highest point End Pass type
(mag) Time Alt. Az. Time Alt. Az. Time Alt. Az.
12 Jun ? 15:21:38 10° NNE 15:22:01 11° NNE 15:22:01 11° NNE visible
13 Jun ? 15:41:25 10° N 15:42:48 20° N 15:42:48 20° N visible
14 Jun ? 16:02:23 10° NW 16:03:38 19° NW 16:03:38 19° NW visible
15 Jun ? 14:44:09 10° N 14:47:08 23° NE 14:47:08 23° NE visible
16 Jun ? 15:04:21 10° NNW 15:08:06 63° NNE 15:08:06 63° NNE visible
17 Jun ? 13:48:06 10° NE 13:49:35 12° ENE 13:51:06 10° E visible
17 Jun ? 15:25:35 10° NW 15:29:08 36° W 15:29:08 36° W visible
